Погода в Медвежьих Озёрах

Россия / Московская область     55°51′54″N   37°59′12″E
темп.,
°C
ветер,
м/с
пор.,
м/с
влажн.,
%
обл.,
%
осадки,
мм/ч
давл.,
гПа
погр.,
м
17 сентября, пт
пт1700:00+7с2367100 0.0 1020416
03:00+6с2372100 0.0 1020386
06:00+6с2469100 0.0 1020301
09:00+7ссв2462100 0.0 1020565
12:00+9св3349100 0.0 10201517
15:00+10св344497 0.1 10201707
18:00+9св2444100 0.0 1020972
21:00+6всв37625 0.0 1021260
18 сентября, сб
сб1800:00+4всв25695 0.0 1023128
03:00+3всв23755 0.0 102391
06:00+2всв3577100 0.0 1024143
09:00+6всв3663100 0.0 1024414
12:00+10в4646100 0.0 10241263
15:00+12в4543100 0.0 10231474
18:00+9всв5854100 0.0 1023820
21:00+7в51163100 0.0 1024562
19 сентября, вс
вс1900:00+6в41264100 0.0 1024543
03:00+5в51268100 0.0 1023486
06:00+5в51270100 0.0 1023496
09:00+7в61160100 0.0 1023679
12:00+10в6947100 0.0 10221061
15:00+11в5945100 0.0 10211349
18:00+9в51050100 0.1 10201328
21:00+8всв61154100 0.1 10201125
20 сентября, пн
пн2000:00+7в51258100 0.3 10191039
03:00+5всв61377100 1.7 1018973
06:00+5всв71584100 1.3 1018860
09:00+4всв71590100 1.6 1018926
12:00+4всв71490100 0.1 1018909
15:00+5всв71486100 0.6 1017991
18:00+5всв71588100 1.1 10161018
21:00+5всв71591100 4.6 1016872
21 сентября, вт
вт2100:00+5всв61494100 6.8 1015803
03:00+5всв61394100 11.4 1014804
06:00+5всв51194100 0.3 1013734
09:00+6всв51195100 0.7 1012683
12:00+6всв51194100 1.1 1011603
15:00+6всв51095100 2.6 1011600
18:00+6всв41096100 0.8 1011524
21:00+6всв4897100 2.4 1011450